Location: Unspecified
(35.7250°N, 0.0000°E)
Time: 02:38:48
(UTC+00:00)

Vanguard 2 - Pass Details

Date: 23 June 2019
Orbit: 554 x 2937 km, 32.9° (Epoch: 14 October)

Event Time Altitude Azimuth Distance (km) Brightness Sun altitude
Rises 14:30:32 0° 274° (W) 4,894 12.1 55.7°
Reaches altitude 10° 14:34:04 10° 262° (W) 4,245 12.1 55.0°
Maximum altitude 14:43:34 27° 211° (SSW) 3,784 11.8 53.1°
Drops below altitude 10° 14:56:04 10° 162° (SSE) 5,625 12.0 50.6°
Sets 15:01:50 0° 152° (SSE) 6,762 12.2 49.4°
